Wetbulb
55.93 56.01 56.22 56.29 56.51 56.20 56.04 55.77 55.61 55.72 56.08 56.30 56.45 56.27 56.49 56.94 56.47 49.55 45.69 52.91 55.63 64.55 66.16 65.14 62.86 60.43 58.04 55.82 56.82 54.25 45.58 42.95 45.60 46.58 49.04 50.92 49.40 53.70 54.26 52.40 52.90 53.84 54.25 55.63 56.62
54.65 54.80 54.88 55.15 55.81 56.69 56.04 55.72 55.73 55.61 55.74 55.84 55.75 55.82 56.14 56.68 51.77 48.27 55.97 61.90 64.04 66.64 59.82 59.46 57.39 57.74 53.07 53.38 54.46 51.01 44.63 46.72 52.30 50.88 49.87 51.86 50.18 51.85 51.41 51.96 51.49 53.31 56.04 56.53 56.36
53.46 54.01 54.33 54.26 54.39 55.26 55.75 55.94 55.81 55.74 55.80 55.64 55.59 55.72 56.27 55.62 45.89 45.66 62.79 63.70 63.35 65.61 55.66 56.57 59.36 56.11 50.98 52.73 52.27 50.19 48.31 52.17 52.98 53.98 52.69 51.94 53.42 55.61 51.77 48.85 51.34 51.42 53.43 54.10 53.67
52.58 52.35 52.82 53.92 54.19 54.11 54.17 54.41 55.02 55.89 56.02 55.62 55.33 55.56 56.35 51.68 36.95 47.36 66.75 67.49 68.57 61.61 56.18 53.18 52.24 50.83 50.23 49.50 53.38 47.96 52.42 54.23 54.40 55.91 53.67 52.67 54.18 53.25 54.33 54.13 56.60 54.24 55.52 54.24 53.63
53.39 53.39 52.53 51.75 52.54 53.42 53.80 54.03 54.41 54.50 54.85 55.25 55.39 55.73 51.70 45.33 42.00 49.64 62.90 61.10 62.66 58.56 54.09 51.74 48.94 47.60 45.15 48.73 51.30 49.72 51.73 53.86 54.95 54.90 55.18 55.85 52.99 53.19 53.65 56.24 55.98 54.20 55.57 54.53 54.27
53.85 53.58 53.30 53.21 52.50 51.87 52.97 53.93 54.17 54.11 53.92 54.29 54.86 55.48 47.85 36.33 48.00 50.86 50.39 49.55 50.29 55.94 55.08 52.18 50.30 50.83 45.78 46.38 45.44 49.55 50.34 51.50 53.39 53.68 54.71 53.22 53.32 53.06 54.26 55.89 53.93 53.02 54.13 54.67 54.33
54.13 54.01 53.73 53.58 53.46 53.09 52.49 52.66 52.90 53.85 53.76 53.74 54.26 52.16 46.59 44.28 50.85 49.85 47.89 46.58 48.16 50.08 53.72 55.06 53.70 50.26 46.96 44.56 47.37 46.86 44.45 46.86 48.27 50.99 50.84 53.99 48.88 50.13 54.46 54.37 52.20 51.34 53.20 54.28 54.53
53.33 53.47 53.49 53.25 53.46 53.50 53.20 53.46 52.61 51.69 52.58 53.74 54.15 50.23 42.72 51.91 53.00 51.06 51.27 48.84 48.54 47.09 50.66 54.24 55.15 49.46 46.04 46.20 46.54 43.65 42.34 39.37 46.89 49.74 50.45 49.60 44.10 51.26 53.93 52.10 51.77 51.22 51.95 52.73 53.42
53.21 52.98 53.10 52.67 52.98 53.36 53.72 53.35 53.08 52.97 52.12 52.79 48.40 46.95 40.51 52.44 48.69 51.13 49.99 46.15 47.43 47.47 48.99 53.22 50.82 46.70 45.44 42.20 38.15 39.09 37.28 39.09 42.38 48.56 47.63 47.80 45.44 50.42 52.76 51.32 50.68 51.18 50.96 52.08 52.36
52.94 52.73 52.75 52.56 52.62 53.08 53.11 52.82 52.10 50.85 50.02 50.65 49.13 42.88 45.15 44.01 48.44 50.01 49.83 48.69 46.72 47.10 46.22 45.50 46.18 42.72 40.39 38.06 34.27 37.11 36.31 39.54 40.93 45.86 46.32 45.62 45.65 49.81 51.33 51.33 50.56 51.22 51.69 51.82 51.13
52.38 52.65 52.42 52.75 52.79 52.81 51.18 43.67 39.43 41.76 44.78 41.13 41.04 40.91 45.90 49.55 51.89 49.97 49.35 46.56 46.80 44.62 38.86 42.86 39.88 39.98 43.38 44.90 44.43 42.12 40.66 40.00 44.16 47.17 45.65 44.72 45.40 47.49 50.54 49.81 50.03 49.03 49.41 50.30 50.38
52.12 52.23 52.04 52.40 52.21 52.82 47.17 38.77 42.44 43.84 37.53 44.28 44.04 45.47 48.00 49.06 43.76 48.11 49.77 43.48 42.57 37.29 41.31 40.21 37.62 44.17 47.89 46.99 44.41 42.81 40.17 40.37 44.82 47.08 45.23 44.13 44.36 47.79 49.76 49.77 50.93 51.53 49.85 49.48 50.66
52.37 52.13 51.86 52.28 52.35 46.76 40.76 42.89 47.23 46.50 36.76 40.66 44.04 43.36 44.82 47.22 43.30 44.45 49.20 46.64 42.23 38.97 39.23 38.14 41.51 45.51 45.76 43.79 43.14 42.79 40.40 41.11 41.17 45.64 45.88 43.62 42.58 45.05 49.37 50.78 51.73 51.86 51.77 51.39 51.28
51.90 51.97 52.01 52.04 45.94 42.32 41.65 44.37 45.62 46.85 32.52 35.23 40.72 43.23 45.40 45.99 41.69 47.90 50.17 48.00 43.69 39.02 39.65 38.56 42.76 42.97 42.63 41.78 42.25 38.26 44.15 43.66 42.84 40.59 36.38 43.77 33.67 41.82 45.77 47.84 49.12 50.69 49.64 49.45 50.85
51.52 51.40 51.70 51.45 45.66 42.73 43.86 45.71 47.90 44.29 18.52 38.23 40.78 49.26 46.92 42.25 45.30 45.41 49.68 46.77 42.76 41.46 40.94 37.77 40.51 40.62 40.26 41.06 43.36 41.17 45.88 43.73 43.17 40.41 38.17 40.82 36.14 39.59 44.04 44.94 47.12 48.13 48.98 49.11 50.29
51.41 51.45 51.49 47.99 46.95 45.89 46.59 45.82 42.38 31.14 21.44 35.14 40.30 38.56 39.59 42.46 43.19 46.44 46.27 47.56 47.30 42.75 41.70 40.15 44.69 43.63 42.55 45.14 45.13 46.39 42.19 42.01 41.93 38.47 33.72 40.00 37.79 37.83 42.09 45.14 46.75 48.88 48.74 49.88 50.52
51.31 51.10 49.39 48.69 40.74 44.12 45.16 39.98 30.45 24.16 36.78 33.29 34.03 37.29 37.21 36.07 40.35 41.84 41.59 40.32 38.26 35.04 35.82 38.96 39.92 43.30 45.10 40.85 42.54 42.50 36.29 30.02 28.53 30.14 31.12 41.07 37.34 41.42 45.50 47.60 48.70 48.77 49.02 49.90 51.45
50.94 50.14 48.50 48.27 45.40 45.53 41.23 34.18 22.56 31.02 32.22 38.04 36.07 36.17 33.29 35.75 35.19 37.94 39.01 37.96 42.15 40.16 36.88 34.56 32.42 40.65 44.50 42.09 39.63 39.56 38.66 31.61 26.18 28.18 33.00 40.53 35.77 40.91 47.92 49.87 50.32 50.00 49.94 50.97 51.12
49.34 42.17 41.37 43.68 46.69 44.71 39.61 26.42 24.82 30.88 34.95 33.22 34.67 31.94 32.43 34.77 35.14 35.74 35.35 37.49 40.98 42.08 34.86 35.09 35.60 43.99 44.77 44.55 43.15 39.13 37.31 42.17 35.16 35.64 32.33 36.17 40.60 45.77 47.68 48.83 49.44 49.58 50.23 50.00 51.19
44.22 41.59 41.78 44.59 45.82 44.74 34.66 26.67 30.00 35.71 36.10 35.94 28.58 32.57 27.93 31.59 32.07 31.77 33.30 39.23 39.55 43.47 41.96 38.18 32.91 42.11 44.11 45.15 43.86 39.87 41.86 34.91 33.53 27.89 28.27 34.48 36.76 39.47 43.39 46.66 48.41 48.66 48.70 49.54 50.35
39.92 34.57 39.25 47.05 46.38 38.43 28.52 27.13 32.52 36.99 37.03 33.88 31.41 30.26 31.51 31.20 32.61 31.55 33.39 39.30 39.89 40.06 42.43 38.74 36.01 37.93 42.33 39.95 39.10 38.00 37.55 36.14 37.40 34.72 29.92 28.42 34.67 43.44 45.13 47.49 48.30 48.54 49.61 49.58 50.32
36.40 28.40 40.72 48.97 35.51 34.05 29.82 32.90 37.41 35.48 38.02 36.09 35.87 33.93 33.18 34.25 32.47 31.96 32.63 37.02 41.95 41.46 36.39 39.37 35.44 32.94 36.87 41.99 45.20 43.04 39.87 37.87 35.58 31.94 35.13 33.91 36.56 45.82 46.90 48.95 50.46 50.50 50.23 50.09 50.91
35.94 36.26 42.30 45.94 30.07 31.52 35.00 34.11 35.54 34.71 34.90 34.77 34.07 35.24 36.07 33.36 29.08 34.06 35.76 41.57 41.73 39.41 36.49 39.31 34.36 31.66 32.45 37.69 40.53 40.24 40.66 41.43 37.32 36.67 34.40 35.10 37.56 45.59 46.12 46.16 50.90 49.19 49.91 50.58 50.34
36.59 29.88 34.57 36.88 34.91 33.40 31.74 31.09 30.94 37.28 35.32 35.66 33.72 34.63 32.41 31.62 35.08 32.57 34.44 38.32 40.62 39.80 44.96 39.60 34.63 35.43 32.24 35.44 39.32 37.50 40.13 39.47 39.51 34.57 36.31 39.02 38.64 43.60 45.74 47.68 49.05 49.42 50.19 50.44 51.00
32.59 29.34 36.35 28.05 30.97 31.79 30.48 31.30 30.38 31.28 35.52 35.63 32.29 32.17 30.93 28.87 32.15 32.13 35.56 37.03 39.41 41.24 40.22 34.87 29.71 36.17 39.74 40.94 40.61 40.81 40.02 40.68 39.37 39.79 37.58 40.36 40.78 44.07 46.32 47.84 49.87 50.78 50.02 50.12 50.48
30.88 35.05 35.38 32.57 33.52 31.03 30.11 31.43 32.21 34.10 35.41 33.29 31.88 34.33 34.31 31.70 33.82 31.78 34.55 35.43 35.28 38.08 37.52 35.04 28.84 35.20 36.86 41.24 40.83 39.25 41.39 41.40 41.51 41.77 42.14 42.21 41.10 46.85 48.83 49.78 50.81 51.17 51.23 50.93 51.33
40.21 40.47 37.43 33.58 32.19 26.07 27.58 32.11 32.67 35.78 37.01 37.74 36.09 33.43 33.13 35.29 38.87 38.83 39.86 40.00 39.52 36.60 35.38 33.44 31.58 30.35 30.84 40.35 38.73 34.76 39.73 40.75 41.58 44.50 44.18 40.76 44.54 45.93 45.70 50.38 50.88 50.90 51.98 51.98 52.57
MSLP
1019.14 1018.90 1018.48 1018.19 1018.13 1017.82 1017.35 1017.21 1017.03 1016.69 1016.42 1016.11 1015.81 1015.25 1014.85 1014.34 1012.69 1011.75 1011.38 1009.34 1009.02 1009.18 1009.26 1009.79 1009.92 1009.85 1010.43 1010.76 1010.83 1011.11 1012.09 1011.90 1010.57 1009.78 1008.30 1007.17 1006.93 1005.55 1005.13 1005.03 1004.89 1004.82 1004.83 1004.86 1005.04
1019.28 1019.00 1018.79 1018.51 1018.08 1017.70 1017.73 1017.52 1017.16 1016.56 1016.33 1016.05 1015.67 1015.19 1014.40 1013.96 1013.39 1011.41 1008.51 1008.05 1008.18 1008.89 1009.80 1009.56 1009.56 1010.12 1010.44 1010.59 1010.66 1010.89 1011.49 1010.44 1008.54 1008.43 1007.91 1006.81 1006.93 1006.19 1005.72 1005.06 1004.86 1004.78 1004.58 1004.84 1005.21
1019.60 1019.20 1018.74 1018.17 1018.08 1017.89 1017.64 1017.20 1017.01 1016.65 1016.39 1015.99 1015.68 1015.14 1014.59 1014.39 1013.18 1008.86 1006.99 1007.57 1007.72 1008.38 1008.90 1009.13 1009.04 1009.74 1010.48 1010.16 1010.28 1010.05 1009.85 1008.04 1007.89 1007.54 1007.56 1007.18 1006.15 1006.10 1005.70 1005.16 1004.61 1004.62 1004.53 1005.19 1005.68
1019.14 1018.82 1018.59 1018.36 1017.83 1017.47 1017.32 1017.11 1016.72 1016.51 1016.35 1015.89 1015.63 1015.21 1014.77 1014.40 1011.69 1006.98 1006.79 1007.14 1007.12 1008.09 1009.03 1008.82 1009.20 1009.77 1009.88 1009.71 1009.11 1009.39 1008.84 1008.18 1007.20 1006.61 1006.91 1006.69 1006.17 1005.49 1005.06 1004.41 1003.82 1003.89 1003.63 1004.76 1005.49
1019.02 1018.66 1018.29 1017.91 1017.68 1017.44 1016.94 1016.50 1016.43 1016.36 1016.12 1015.66 1015.42 1015.32 1015.05 1013.77 1010.09 1006.97 1006.77 1007.34 1007.72 1008.30 1008.28 1008.50 1008.75 1009.36 1009.20 1008.77 1008.72 1008.57 1008.09 1007.72 1007.25 1006.95 1006.41 1006.04 1005.51 1004.93 1004.32 1003.68 1003.48 1003.65 1003.86 1004.30 1004.73
1018.91 1018.53 1018.19 1017.91 1017.63 1017.26 1016.99 1016.75 1016.23 1015.80 1015.59 1015.53 1015.50 1015.30 1015.38 1012.95 1008.66 1007.54 1007.16 1007.47 1007.77 1007.94 1008.00 1008.28 1007.87 1008.16 1008.62 1008.39 1008.74 1007.87 1008.02 1007.49 1007.08 1006.81 1006.20 1005.92 1004.77 1004.48 1003.53 1003.31 1003.40 1003.71 1003.56 1003.73 1004.15
1018.99 1018.54 1018.10 1017.68 1017.34 1016.99 1016.61 1016.17 1015.70 1015.27 1015.11 1015.31 1015.22 1015.01 1013.87 1009.30 1008.55 1007.97 1007.80 1007.39 1007.13 1007.25 1007.47 1007.50 1007.53 1007.92 1008.18 1008.51 1008.10 1007.98 1007.73 1007.07 1006.85 1006.08 1005.47 1005.37 1004.29 1003.66 1003.07 1003.19 1003.22 1003.27 1003.10 1003.19 1003.45
1018.83 1018.41 1018.01 1017.54 1017.02 1016.52 1016.05 1015.65 1015.47 1015.26 1015.15 1015.02 1015.04 1014.68 1011.45 1009.04 1008.56 1007.92 1007.96 1006.91 1007.11 1007.10 1007.20 1007.17 1007.30 1007.86 1008.36 1008.39 1008.25 1008.40 1008.09 1007.14 1006.00 1005.55 1005.10 1005.27 1003.59 1002.92 1002.60 1002.94 1002.85 1002.84 1002.90 1003.11 1003.09
1018.60 1018.17 1017.79 1017.32 1016.73 1016.06 1015.46 1014.95 1014.28 1013.86 1013.98 1014.37 1014.50 1014.05 1010.57 1008.49 1007.65 1005.96 1006.68 1006.38 1006.14 1006.88 1007.09 1007.07 1007.29 1007.88 1008.36 1008.70 1009.33 1008.94 1008.18 1007.10 1005.68 1005.63 1005.22 1004.90 1003.39 1002.59 1002.56 1002.79 1002.55 1002.27 1002.22 1002.46 1002.54
1018.37 1017.84 1017.38 1017.01 1016.52 1015.94 1015.18 1014.25 1012.53 1012.31 1012.62 1013.36 1013.60 1013.48 1010.17 1006.76 1005.37 1004.66 1004.93 1005.95 1006.24 1006.23 1007.11 1007.01 1007.24 1007.52 1007.82 1008.52 1007.61 1008.30 1008.15 1006.75 1005.68 1004.99 1004.88 1004.45 1003.72 1002.69 1002.09 1002.26 1001.95 1001.66 1001.46 1001.75 1002.13
1018.11 1017.62 1017.19 1016.69 1016.10 1015.71 1015.35 1014.81 1013.17 1012.76 1012.59 1011.85 1011.18 1009.29 1006.64 1006.19 1004.48 1004.01 1004.08 1005.20 1006.11 1006.04 1005.98 1006.08 1006.74 1005.26 1005.87 1006.34 1006.44 1007.14 1007.10 1006.52 1004.87 1005.02 1004.72 1004.15 1003.48 1002.74 1001.77 1001.81 1001.46 1000.97 1001.00 1001.19 1001.73
1017.89 1017.32 1016.80 1016.38 1015.97 1015.49 1015.67 1015.50 1014.05 1014.04 1012.11 1010.67 1009.70 1009.11 1007.71 1007.78 1006.95 1003.94 1003.55 1004.51 1005.21 1004.83 1005.40 1005.72 1002.80 1004.02 1005.23 1005.82 1006.66 1006.83 1006.65 1006.01 1004.73 1005.13 1005.01 1004.25 1003.51 1002.43 1001.75 1001.36 1000.76 1000.57 1000.48 1001.32 1001.93
1017.52 1017.00 1016.49 1015.90 1015.42 1015.36 1015.54 1014.93 1013.97 1014.00 1012.93 1009.04 1007.24 1006.22 1005.83 1006.14 1005.76 1003.46 1002.94 1003.07 1003.51 1004.35 1003.75 1002.77 1000.69 1003.76 1004.29 1004.82 1005.66 1005.63 1005.83 1005.42 1005.17 1005.45 1004.90 1004.42 1003.33 1002.34 1000.77 1000.77 1000.25 1000.02 999.94 1000.43 1001.08
1017.19 1016.59 1016.16 1015.67 1015.38 1015.48 1014.97 1014.03 1014.16 1013.88 1012.55 1007.81 1005.79 1004.11 1003.94 1003.75 1003.00 1002.35 1001.88 1001.96 1002.57 1002.86 1003.32 1002.83 1002.56 1002.27 1003.08 1003.37 1004.13 1004.51 1004.73 1005.00 1005.31 1005.88 1005.35 1004.21 1003.74 1002.54 1001.28 1000.75 1000.36 999.82 999.96 1000.15 1001.30
1016.88 1016.21 1015.77 1015.67 1015.49 1015.03 1014.20 1014.02 1013.50 1013.26 1011.15 1005.35 1003.84 1002.73 1002.53 1003.03 1001.50 1000.25 1000.84 1001.23 1001.42 1001.85 1002.31 1001.08 1001.22 1001.90 1001.89 1001.78 1003.12 1003.09 1004.32 1004.88 1005.26 1005.63 1005.46 1004.68 1004.68 1002.21 1001.90 1001.15 1000.25 999.95 999.96 1000.45 1001.35
1016.18 1015.59 1015.32 1014.99 1014.93 1014.31 1014.25 1014.00 1013.48 1013.13 1009.23 1005.17 1003.76 1003.33 1003.05 1002.59 1001.67 1000.15 999.94 1000.75 1001.10 1001.43 1000.92 1000.52 1000.14 1000.37 999.27 1001.04 1001.93 1002.84 1004.11 1004.87 1005.29 1005.81 1005.17 1003.96 1004.48 1002.11 1001.55 1000.47 999.83 999.37 999.80 1000.85 1001.94
1015.61 1015.05 1014.98 1014.72 1014.24 1014.08 1014.22 1014.02 1013.51 1011.17 1007.59 1006.06 1005.07 1004.36 1003.57 1002.71 1001.73 1000.97 1000.86 1000.38 999.88 1000.97 1000.14 1000.39 999.97 999.42 999.74 1000.94 1001.84 1002.85 1004.32 1005.93 1005.82 1005.62 1004.46 1003.42 1003.51 1000.88 999.96 999.38 999.30 999.54 1000.17 1001.05 1001.93
1015.11 1014.54 1014.13 1013.91 1013.69 1014.07 1014.33 1014.10 1012.45 1009.45 1008.01 1006.45 1006.32 1005.38 1004.68 1004.05 1002.95 1001.91 1000.89 1000.53 999.85 999.51 999.74 1000.03 999.78 999.06 998.49 999.04 1000.37 1001.62 1003.08 1004.33 1005.04 1004.94 1003.99 1002.95 1001.70 999.22 998.44 998.42 998.48 999.06 1000.19 1001.14 1002.14
1014.81 1014.56 1014.38 1013.47 1013.55 1014.15 1014.17 1013.46 1011.40 1009.82 1009.08 1008.29 1006.94 1006.02 1005.52 1005.47 1004.78 1003.44 1002.14 1001.65 1000.51 999.84 999.97 999.90 998.91 997.69 998.22 998.51 999.51 1000.58 1001.35 1002.94 1004.05 1004.12 1003.62 1002.05 1000.30 998.75 998.26 998.36 998.82 999.55 1000.43 1001.42 1002.10
1015.25 1014.96 1014.15 1013.41 1013.53 1013.99 1014.05 1012.90 1011.47 1010.09 1009.46 1008.82 1008.19 1007.71 1007.25 1006.34 1005.80 1005.18 1004.02 1003.11 1001.95 1000.75 1000.08 999.64 999.21 997.91 997.37 998.09 998.15 998.78 1001.14 1002.48 1003.23 1003.69 1003.18 1001.45 1000.31 999.36 998.78 998.80 999.27 999.98 1000.58 1001.31 1002.16
1015.48 1015.15 1013.98 1013.35 1013.50 1014.10 1013.83 1013.06 1011.66 1010.43 1009.99 1009.67 1009.08 1008.78 1008.00 1007.16 1006.63 1006.04 1004.79 1003.64 1003.08 1001.93 1000.66 1000.09 999.33 998.06 997.45 996.13 997.03 998.31 999.28 1000.22 1001.65 1002.30 1002.04 1001.50 999.49 998.34 998.18 998.51 999.12 999.67 1000.17 1001.08 1001.91
1015.98 1015.56 1014.04 1013.57 1014.15 1014.11 1013.85 1012.99 1011.85 1010.80 1010.16 1009.89 1009.31 1008.82 1008.09 1007.41 1006.79 1006.31 1005.52 1004.97 1004.52 1003.78 1002.80 1001.23 999.82 998.73 997.27 996.17 996.35 997.15 998.24 999.18 1000.28 1000.98 1001.17 1000.76 998.59 997.55 997.26 997.74 998.24 998.93 999.98 1000.72 1001.61
1016.51 1015.83 1014.25 1013.84 1014.49 1014.53 1014.05 1013.13 1012.03 1011.03 1010.41 1009.96 1009.19 1008.73 1008.38 1007.89 1007.40 1006.41 1005.94 1005.37 1005.10 1004.40 1004.36 1003.01 1000.49 999.75 998.11 996.93 996.23 996.20 996.53 997.28 998.75 999.65 999.90 1000.15 997.64 997.19 997.42 997.68 998.12 998.84 999.81 1000.65 1001.54
1017.00 1016.42 1015.40 1015.25 1015.42 1015.16 1014.35 1013.09 1012.15 1011.15 1010.47 1009.78 1009.27 1008.89 1008.59 1008.01 1007.30 1006.46 1005.70 1005.32 1005.20 1005.25 1004.70 1004.13 1002.51 999.71 997.08 995.56 995.35 995.71 996.11 996.81 997.83 998.59 998.42 997.59 997.42 997.42 997.53 997.57 998.25 999.01 999.49 1000.22 1001.05
1017.30 1017.06 1016.68 1016.03 1015.51 1015.29 1014.76 1013.49 1012.42 1011.66 1010.70 1009.82 1009.29 1009.03 1008.92 1008.21 1007.29 1006.61 1005.83 1005.21 1004.85 1005.30 1005.20 1004.99 1003.67 1001.12 998.19 996.80 995.59 995.07 995.20 995.72 996.00 996.36 996.85 996.53 996.83 996.48 996.52 996.80 997.61 998.18 999.39 1000.24 1000.95
1017.41 1017.08 1016.78 1016.38 1015.88 1015.42 1014.47 1013.57 1012.67 1011.98 1011.40 1010.35 1009.80 1009.16 1008.74 1008.40 1007.61 1007.13 1006.65 1005.79 1005.13 1005.78 1005.68 1005.51 1004.30 1002.28 999.24 997.18 995.90 995.48 994.85 994.54 994.81 995.52 995.78 995.76 995.68 995.02 995.07 995.68 996.84 997.71 998.81 999.40 1000.01
1017.02 1016.75 1016.92 1016.11 1015.74 1015.45 1014.46 1013.77 1012.79 1011.95 1011.01 1010.56 1009.66 1009.13 1008.45 1007.61 1007.14 1006.70 1006.21 1005.45 1005.22 1005.45 1006.07 1006.17 1005.12 1003.50 1000.13 997.61 996.97 995.84 993.83 993.84 993.82 993.81 994.22 994.40 994.25 994.52 995.27 995.51 996.14 997.01 997.80 998.11 998.78
Wind_Speed
16 16 16 15 14 13 15 16 16 16 16 17 17 18 18 18 17 2 8 12 10 8 2 6 2 4 4 3 4 4 3 6 7 6 10 3 3 5 4 4 3 8 7 6 11
17 17 17 17 17 14 13 14 16 16 16 17 17 18 19 20 4 8 10 13 15 11 5 7 6 6 3 5 5 6 5 10 10 6 7 10 3 8 5 9 5 5 3 2 15
16 17 17 17 17 16 16 16 16 16 16 16 17 17 18 15 6 11 8 13 17 13 7 7 4 7 6 5 6 7 12 23 9 10 5 9 20 10 9 10 10 8 6 7 7
17 17 17 17 17 17 18 18 17 17 17 15 15 16 19 3 10 3 6 5 3 13 9 7 4 5 7 9 10 5 12 18 18 18 6 13 10 16 18 21 20 13 10 11 14
17 17 18 18 18 18 18 19 18 17 17 16 14 13 8 5 11 10 14 8 7 10 14 9 6 7 9 5 2 7 14 15 15 15 17 17 15 20 21 21 13 7 11 16 16
17 18 18 17 18 18 18 17 16 17 17 16 14 12 3 13 8 11 16 6 9 4 7 9 9 6 5 6 5 6 8 13 11 16 19 19 19 10 16 13 10 9 15 16 16
17 18 19 19 19 19 19 18 18 18 18 17 16 11 16 25 8 7 9 3 4 11 10 14 12 5 5 6 7 7 15 15 10 14 12 18 17 22 18 12 11 11 14 15 18
17 18 19 20 21 21 22 20 20 21 20 18 15 12 16 7 14 21 20 24 10 7 4 7 6 7 4 2 7 5 4 7 9 16 15 8 20 19 16 10 16 10 10 11 16
18 18 18 21 22 23 23 23 28 26 21 16 9 8 15 9 11 19 16 13 14 9 7 6 7 7 4 6 5 3 14 17 21 13 6 6 19 12 8 7 13 11 12 14 19
18 19 19 20 21 21 22 26 27 13 3 7 9 2 9 10 7 6 12 17 9 6 5 8 5 6 5 6 16 13 9 7 16 3 9 15 17 17 14 12 13 13 14 12 12
21 19 17 19 21 19 14 8 6 3 2 8 7 8 5 14 13 7 6 12 6 5 12 9 9 20 26 21 12 10 6 10 17 2 8 7 11 12 14 8 11 11 10 11 7
22 22 21 18 18 18 4 2 4 3 13 13 21 24 28 11 11 9 14 9 9 18 10 6 32 21 16 15 15 10 11 16 19 6 6 8 15 14 13 10 10 12 9 6 3
21 20 20 20 18 6 2 6 5 9 7 11 15 11 16 17 14 10 10 8 7 14 26 30 19 17 20 16 16 18 18 17 20 3 7 7 14 13 18 5 8 10 9 6 11
21 20 18 18 7 3 5 2 5 8 6 9 7 8 7 9 15 17 9 7 7 19 19 20 18 23 17 24 16 19 14 17 18 4 8 4 7 6 9 13 7 9 9 8 6
20 20 17 12 8 6 5 9 13 2 6 2 4 3 5 14 6 15 19 11 12 10 11 13 18 23 20 19 21 17 12 9 13 8 5 7 3 8 4 8 10 9 9 4 8
21 21 17 8 3 9 6 10 1 3 10 7 5 11 5 11 17 6 12 12 8 5 7 9 9 24 21 17 20 8 2 2 11 3 11 18 7 6 7 9 7 5 3 7 8
22 23 15 7 5 2 4 4 3 7 4 1 11 16 8 12 8 10 10 18 18 14 17 5 13 5 11 15 7 12 7 4 3 5 7 8 6 15 7 9 9 9 7 9 12
19 21 7 6 3 2 2 1 6 5 12 15 17 14 6 18 9 12 11 13 23 14 11 15 12 22 15 15 13 14 15 7 6 4 5 7 8 10 10 9 9 4 6 9 10
16 4 3 5 5 2 2 5 4 3 7 12 14 7 6 14 7 11 6 13 8 18 7 13 16 2 19 6 16 17 17 12 2 3 2 5 7 9 1 3 3 9 10 10 11
5 4 3 4 6 3 0 5 4 6 10 10 6 7 11 13 9 13 6 11 12 7 3 3 5 9 18 20 17 10 11 8 6 6 5 5 3 7 5 7 4 7 9 8 8
3 4 4 2 3 3 2 5 5 11 10 5 6 8 9 11 3 7 6 8 18 19 11 4 2 3 9 16 19 9 11 5 8 5 6 1 7 8 9 9 12 10 10 11 12
3 3 3 3 1 1 1 4 5 8 6 6 6 9 11 11 9 4 9 10 13 15 10 6 6 5 11 5 19 19 16 10 12 9 6 3 9 5 11 14 14 14 10 8 9
4 3 5 3 2 1 3 6 5 7 9 5 4 4 11 12 7 1 5 9 12 15 14 9 6 7 7 2 3 24 21 21 3 4 8 11 11 3 4 7 10 11 9 9 9
3 3 4 3 2 2 5 6 4 7 10 6 6 4 9 10 9 7 12 9 15 19 13 5 5 14 15 3 6 14 22 9 17 10 8 12 3 4 6 9 7 7 8 11 12
3 3 1 4 4 7 3 4 7 8 5 7 4 5 3 6 8 12 13 15 12 15 4 4 5 6 18 20 9 4 12 22 19 13 16 13 9 9 12 13 12 10 8 10 11
2 2 3 6 6 5 3 2 8 6 4 7 5 8 3 5 8 10 14 9 8 6 6 5 5 7 7 17 23 18 5 20 22 15 12 7 8 9 11 5 10 14 15 15 15
2 2 1 4 5 2 3 5 9 13 6 10 13 10 7 11 8 12 13 13 10 6 6 5 4 10 7 14 8 16 27 12 12 19 17 16 12 8 4 12 15 13 16 17 17
Wind_Direction
339 337 335 329 320 319 324 325 326 327 327 327 328 332 331 329 322 6 241 223 187 190 120 131 162 176 117 193 181 133 102 254 239 195 250 169 350 302 284 247 236 202 173 250 140
338 334 331 328 326 320 308 309 312 320 322 325 330 332 334 334 303 253 232 231 215 147 195 180 166 158 186 198 202 156 152 236 217 194 253 296 182 291 303 301 283 284 218 124 145
335 333 331 330 325 321 319 312 306 307 310 316 324 330 329 328 294 247 214 228 233 183 210 210 141 151 215 163 212 190 209 231 265 243 219 286 294 297 272 279 246 231 213 161 158
336 328 323 327 327 323 320 317 312 302 303 308 315 324 322 286 241 245 110 68 251 186 200 166 175 175 212 194 212 223 234 241 250 259 271 261 292 289 288 275 279 237 184 167 181
327 329 329 323 318 318 317 314 308 305 302 304 309 317 342 249 235 273 308 16 81 157 189 183 160 179 219 200 182 190 244 248 270 284 275 278 266 266 280 279 271 248 161 187 194
323 321 319 319 319 313 308 304 298 299 300 299 297 302 228 248 253 270 279 293 235 208 171 183 193 183 223 237 214 245 254 267 257 261 273 275 272 278 271 278 269 190 195 197 200
332 327 320 314 312 310 307 300 298 299 296 291 289 281 250 241 275 313 329 264 207 216 219 208 224 194 175 302 274 260 285 280 258 266 259 266 271 265 272 271 267 222 214 206 212
329 326 323 322 315 307 306 302 294 282 276 274 276 268 255 264 247 262 258 270 250 284 252 251 195 216 185 288 332 338 293 270 269 252 255 208 271 274 278 260 266 238 229 216 225
326 323 323 322 317 314 307 303 298 284 267 259 257 233 274 282 216 240 212 227 226 219 216 247 132 183 121 200 314 257 261 264 278 250 260 199 275 275 266 257 261 256 220 216 231
325 323 321 317 319 314 312 312 300 304 227 193 229 225 244 237 237 220 185 207 230 187 161 181 189 177 147 149 220 216 229 259 255 140 225 252 261 272 272 244 252 263 253 220 217
324 322 318 317 319 317 325 338 3 26 203 213 209 246 285 15 302 223 152 162 177 201 181 173 194 204 206 206 224 236 221 246 259 191 233 244 263 271 278 296 266 259 244 243 238
321 321 320 319 313 314 356 245 243 352 298 261 252 239 263 283 296 282 130 141 174 201 156 166 227 206 203 208 216 242 247 253 284 272 244 270 269 276 278 263 237 261 261 248 198
319 317 317 317 316 324 181 240 304 333 264 272 224 227 213 194 224 250 187 150 171 187 192 203 224 199 203 205 202 222 229 246 250 336 264 285 282 284 283 249 260 246 233 224 202
320 317 316 321 321 311 262 342 318 306 286 271 215 246 200 213 229 225 222 174 187 200 199 232 224 195 196 212 196 224 214 242 259 277 262 128 284 296 285 303 287 258 237 241 171
315 316 315 321 295 276 275 339 320 208 295 230 136 144 224 182 153 217 192 223 208 165 170 211 182 212 211 204 199 231 223 225 247 232 259 247 271 264 232 284 280 264 247 215 154
317 316 315 298 201 251 326 298 273 179 244 307 75 350 48 221 246 297 168 202 170 223 230 214 202 200 212 201 207 205 250 264 254 236 253 263 185 226 233 222 258 246 222 142 127
317 314 308 275 251 139 338 353 203 223 284 32 354 341 340 334 218 243 240 190 185 193 214 161 222 222 175 205 172 201 127 259 281 220 226 236 188 244 248 233 223 259 179 153 146
316 315 290 237 228 238 51 144 236 248 257 352 352 329 54 6 342 339 234 205 216 195 182 201 209 209 177 196 190 210 180 170 199 208 194 181 231 249 214 230 230 210 147 143 146
321 329 300 276 205 153 211 209 237 308 18 347 336 350 354 356 337 349 332 239 227 216 183 198 230 174 188 150 172 200 206 179 34 291 126 221 281 322 33 262 158 144 143 166 163
332 325 285 325 132 132 116 258 292 333 352 2 6 353 331 336 350 4 312 32 347 298 189 276 191 217 202 196 202 171 159 172 198 202 219 268 220 222 213 223 165 155 175 165 140
33 360 273 81 113 61 219 236 296 304 317 338 328 309 300 300 1 358 295 318 14 346 320 199 142 263 195 203 180 175 178 176 151 195 170 208 256 209 206 184 187 198 190 158 172
19 346 280 331 67 219 273 317 326 301 299 279 256 245 273 316 311 315 271 325 358 1 351 285 207 205 236 252 193 203 198 186 192 194 241 161 260 238 197 195 185 191 173 169 172
346 304 306 23 64 347 255 268 263 276 279 274 292 309 292 287 317 351 296 315 317 9 337 331 279 253 340 214 183 198 197 215 144 99 190 200 253 191 212 196 205 164 161 162 151
5 334 322 60 178 292 330 287 290 302 299 260 259 296 291 286 269 283 282 286 307 316 339 336 280 236 216 240 137 195 203 171 192 216 210 226 184 177 183 159 160 169 168 163 165
24 299 339 313 324 310 277 286 307 319 287 276 289 230 311 279 299 279 274 288 278 310 335 35 276 306 268 253 275 188 188 201 203 196 200 227 200 213 191 172 189 180 144 151 166
84 334 10 286 288 289 280 279 309 325 272 319 300 314 303 253 256 282 290 284 286 290 348 347 282 322 259 244 240 250 249 201 214 209 228 192 224 204 204 178 144 169 179 177 183
280 337 218 288 314 350 258 339 301 318 255 227 278 304 269 258 270 288 278 268 242 210 245 293 336 351 279 230 239 252 238 224 208 205 196 207 221 152 151 169 175 173 187 183 186